When you browse on this site, cookies collect data to enhance your experience and personalize the content and advertising you see.
Visit our Privacy Policy to learn more. By continuing to use the site, you agree to this use of cookies and data.
EN

Hourly Weather Pernik

Today, 11 August, Tuesday

Time Temperature Precipitation Wind Pressure Humidity
00:00 +18°C° 0 mm 1 mps 692 mmHg 68%
01:00 +16°C° 0 mm 0 mps 692 mmHg 69%
02:00 +16°C° 0 mm 0 mps 692 mmHg 70%
03:00 +15°C° 0 mm 0 mps 692 mmHg 71%
04:00 +15°C° 0 mm 0 mps 692 mmHg 72%
05:00 +15°C° 0 mm 0 mps 692 mmHg 73%
06:00 +17°C° 0 mm 0 mps 692 mmHg 69%
07:00 +18°C° 0 mm 0 mps 692 mmHg 66%
08:00 +20°C° 0 mm 0 mps 693 mmHg 61%
09:00 +24°C° 0 mm 1 mps 694 mmHg 57%
10:00 +26°C° 0 mm 1 mps 694 mmHg 52%
11:00 +27°C° 0 mm 1 mps 694 mmHg 47%
12:00 +28°C° 0.1 mm 1 mps 694 mmHg 45%
13:00 +28°C° 0.1 mm 1 mps 694 mmHg 44%
14:00 +29°C° 0.1 mm 2 mps 694 mmHg 42%
15:00 +29°C° 0.1 mm 2 mps 693 mmHg 45%
16:00 +28°C° 0.1 mm 2 mps 693 mmHg 48%
17:00 +28°C° 0.1 mm 2 mps 693 mmHg 50%
18:00 +26°C° 0.1 mm 2 mps 692 mmHg 57%
19:00 +24°C° 0.1 mm 2 mps 692 mmHg 64%
20:00 +22°C° 0.1 mm 1 mps 692 mmHg 71%
21:00 +21°C° 0 mm 1 mps 692 mmHg 72%
22:00 +20°C° 0 mm 1 mps 692 mmHg 74%
23:00 +18°C° 0 mm 0 mps 692 mmHg 75%

Tomorrow, 12 August, Wednesday

Time Temperature Precipitation Wind Pressure Humidity
00:00 +17°C° 0 mm 0 mps 692 mmHg 76%
01:00 +17°C° 0 mm 0 mps 692 mmHg 77%
02:00 +17°C° 0 mm 0 mps 692 mmHg 78%
03:00 +16°C° 0 mm 0 mps 692 mmHg 79%
04:00 +16°C° 0 mm 0 mps 691 mmHg 80%
05:00 +16°C° 0 mm 0 mps 691 mmHg 81%
06:00 +17°C° 0 mm 0 mps 692 mmHg 76%
07:00 +19°C° 0 mm 0 mps 692 mmHg 72%
08:00 +23°C° 0 mm 1 mps 693 mmHg 67%
09:00 +24°C° 0.1 mm 1 mps 693 mmHg 61%
10:00 +26°C° 0.1 mm 1 mps 693 mmHg 55%
11:00 +28°C° 0.1 mm 2 mps 693 mmHg 49%
12:00 +28°C° 0.2 mm 2 mps 693 mmHg 48%
13:00 +28°C° 0.2 mm 2 mps 693 mmHg 47%
14:00 +29°C° 0.2 mm 2 mps 693 mmHg 46%
15:00 +28°C° 0.2 mm 3 mps 693 mmHg 48%
16:00 +28°C° 0.2 mm 3 mps 693 mmHg 50%
17:00 +27°C° 0.2 mm 3 mps 692 mmHg 52%
18:00 +26°C° 0.1 mm 2 mps 692 mmHg 59%
19:00 +24°C° 0.1 mm 2 mps 692 mmHg 65%
20:00 +22°C° 0.1 mm 1 mps 692 mmHg 72%
21:00 +21°C° 0.1 mm 1 mps 692 mmHg 74%
22:00 +20°C° 0.1 mm 1 mps 692 mmHg 75%
23:00 +20°C° 0.1 mm 1 mps 693 mmHg 77%

Day after tomorrow, 13 August, Thursday

Time Temperature Precipitation Wind Pressure Humidity
00:00 +19°C° 0 mm 1 mps 693 mmHg 77%
01:00 +19°C° 0 mm 1 mps 692 mmHg 78%
02:00 +17°C° 0 mm 0 mps 692 mmHg 78%
03:00 +19°C° 0 mm 1 mps 692 mmHg 79%
04:00 +18°C° 0 mm 1 mps 692 mmHg 80%
05:00 +18°C° 0 mm 1 mps 692 mmHg 82%
06:00 +19°C° 0 mm 1 mps 693 mmHg 77%
07:00 +21°C° 0 mm 1 mps 693 mmHg 72%
08:00 +22°C° 0 mm 1 mps 694 mmHg 67%
09:00 +24°C° 0.1 mm 1 mps 694 mmHg 61%
10:00 +26°C° 0.1 mm 1 mps 694 mmHg 55%
11:00 +27°C° 0.1 mm 2 mps 695 mmHg 49%
12:00 +28°C° 0 mm 2 mps 694 mmHg 47%
13:00 +28°C° 0 mm 2 mps 694 mmHg 46%
14:00 +28°C° 0 mm 2 mps 694 mmHg 44%
15:00 +28°C° 0 mm 2 mps 694 mmHg 45%
16:00 +28°C° 0 mm 2 mps 693 mmHg 47%
17:00 +28°C° 0 mm 2 mps 693 mmHg 48%
18:00 +26°C° 0 mm 2 mps 693 mmHg 55%
19:00 +24°C° 0 mm 2 mps 692 mmHg 62%
20:00 +22°C° 0 mm 1 mps 692 mmHg 69%
21:00 +21°C° 0 mm 1 mps 692 mmHg 71%
22:00 +21°C° 0 mm 1 mps 692 mmHg 72%
23:00 +20°C° 0 mm 1 mps 692 mmHg 74%

14 August, Friday

Time Temperature Precipitation Wind Pressure Humidity
00:00 +18°C° 0 mm 0 mps 692 mmHg 76%
01:00 +17°C° 0 mm 0 mps 692 mmHg 77%
02:00 +17°C° 0 mm 0 mps 692 mmHg 79%
03:00 +16°C° 0 mm 0 mps 691 mmHg 81%
04:00 +16°C° 0 mm 0 mps 691 mmHg 82%
05:00 +16°C° 0 mm 1 mps 691 mmHg 84%
06:00 +19°C° 0 mm 1 mps 691 mmHg 79%
07:00 +20°C° 0 mm 1 mps 692 mmHg 74%
08:00 +22°C° 0 mm 1 mps 692 mmHg 69%
09:00 +24°C° 0 mm 1 mps 692 mmHg 62%
10:00 +26°C° 0 mm 1 mps 693 mmHg 55%
11:00 +28°C° 0 mm 1 mps 693 mmHg 48%
12:00 +29°C° 0.1 mm 1 mps 693 mmHg 46%
13:00 +29°C° 0.1 mm 1 mps 692 mmHg 44%
14:00 +30°C° 0.1 mm 1 mps 692 mmHg 41%
15:00 +30°C° 0.1 mm 1 mps 692 mmHg 43%
16:00 +29°C° 0.1 mm 1 mps 691 mmHg 45%
17:00 +29°C° 0.1 mm 1 mps 691 mmHg 47%
18:00 +27°C° 0.1 mm 1 mps 690 mmHg 53%
19:00 +25°C° 0.1 mm 1 mps 690 mmHg 60%
20:00 +21°C° 0.1 mm 0 mps 690 mmHg 66%
21:00 +20°C° 0.2 mm 0 mps 690 mmHg 69%
22:00 +19°C° 0.2 mm 0 mps 690 mmHg 71%
23:00 +19°C° 0.2 mm 0 mps 690 mmHg 74%

15 August, Saturday

Time Temperature Precipitation Wind Pressure Humidity
00:00 +18°C° 0.1 mm 0 mps 690 mmHg 75%
01:00 +18°C° 0.1 mm 0 mps 690 mmHg 77%
02:00 +19°C° 0.1 mm 1 mps 690 mmHg 78%
03:00 +19°C° 0.1 mm 1 mps 690 mmHg 79%
04:00 +19°C° 0.1 mm 1 mps 690 mmHg 80%
05:00 +18°C° 0.1 mm 1 mps 689 mmHg 81%
06:00 +19°C° 0.1 mm 1 mps 690 mmHg 78%
07:00 +20°C° 0.1 mm 1 mps 690 mmHg 75%
08:00 +21°C° 0.1 mm 1 mps 690 mmHg 72%
09:00 +23°C° 0.1 mm 1 mps 690 mmHg 65%
10:00 +25°C° 0.1 mm 1 mps 691 mmHg 59%
11:00 +27°C° 0.1 mm 1 mps 691 mmHg 52%
12:00 +28°C° 0.1 mm 1 mps 691 mmHg 48%
13:00 +29°C° 0.1 mm 1 mps 691 mmHg 45%
14:00 +30°C° 0.1 mm 1 mps 690 mmHg 42%
15:00 +27°C° 2.2 mm 1 mps 689 mmHg 54%
16:00 +24°C° 2.2 mm 2 mps 689 mmHg 66%
17:00 +21°C° 2.2 mm 2 mps 688 mmHg 79%
18:00 +20°C° 1 mm 2 mps 688 mmHg 81%
19:00 +20°C° 1 mm 1 mps 688 mmHg 84%
20:00 +19°C° 1 mm 1 mps 689 mmHg 87%
21:00 +19°C° 0.8 mm 1 mps 689 mmHg 88%
22:00 +19°C° 0.8 mm 1 mps 689 mmHg 89%
23:00 +18°C° 0.8 mm 1 mps 689 mmHg 91%

16 August, Sunday

Time Temperature Precipitation Wind Pressure Humidity
00:00 +18°C° 0 mm 1 mps 689 mmHg 90%
01:00 +18°C° 0 mm 1 mps 689 mmHg 89%
02:00 +18°C° 0 mm 1 mps 689 mmHg 88%
03:00 +16°C° 0 mm 1 mps 689 mmHg 88%
04:00 +16°C° 0 mm 1 mps 688 mmHg 89%
05:00 +15°C° 0 mm 1 mps 688 mmHg 89%
06:00 +16°C° 0 mm 1 mps 689 mmHg 86%
07:00 +18°C° 0 mm 1 mps 689 mmHg 82%
08:00 +19°C° 0 mm 1 mps 690 mmHg 78%
09:00 +21°C° 0.2 mm 1 mps 690 mmHg 73%
10:00 +22°C° 0.2 mm 1 mps 691 mmHg 68%
11:00 +24°C° 0.2 mm 2 mps 691 mmHg 63%
12:00 +24°C° 0.8 mm 2 mps 691 mmHg 65%
13:00 +24°C° 0.8 mm 3 mps 691 mmHg 67%
14:00 +24°C° 0.8 mm 3 mps 691 mmHg 69%
15:00 +22°C° 1.1 mm 4 mps 691 mmHg 72%
16:00 +21°C° 1.1 mm 4 mps 691 mmHg 75%
17:00 +20°C° 1.1 mm 4 mps 691 mmHg 78%
18:00 +19°C° 0.1 mm 3 mps 691 mmHg 82%
19:00 +17°C° 0.1 mm 3 mps 691 mmHg 85%
20:00 +16°C° 0.1 mm 2 mps 691 mmHg 89%
21:00 +15°C° 0 mm 2 mps 691 mmHg 90%
22:00 +15°C° 0 mm 2 mps 692 mmHg 90%
23:00 +15°C° 0 mm 2 mps 692 mmHg 91%
Show more